User: anonymous   Login
Location: Wroclaw
(51.1000°N, 17.0330°E)
Time: 01:05:54
(UTC+01:00)
Language:

Tiangong - Orbit

View from above orbital plane
View from above orbital plane
View from above satellite
View from above satellite

Ground track
Ground track

The orbit data is extracted from the following two-line orbital elements,

1 48274U 21035A   23033.53957896  .00012406  00000-0  14714-3 0  9992
2 48274  41.4756 256.8662 0002330 122.7310 319.3253 15.61018177100771
Epoch (UTC): 02 February 2023 12:56:59
Eccentricity: 0.0002330
inclination: 41.4756°
perigee height: 383 km
apogee height: 386 km
right ascension of ascending node: 256.8662°
argument of perigee: 122.7310°
revolutions per day: 15.61018177
mean anomaly at epoch: 319.3253°
orbit number at epoch: 10077

The dashed part of the orbit path shows where the satellite is in the earth's shadow,  

DLR